Regional Weather Roundup
Issued by NWS Glasgow, MT

Home | Current Version | Previous Version | Text Only | Print | Product List | Glossary On
Versions: 1 2 3 4 5 6 7 8 9 10 11 12 13 14 15 16 17 18 19 20 21 22 23 24 25 26 27 28 29 30 31 32 33 34 35 36 37 38 39 40 41 42 43 44 45 46 47 48 49 50
000
ASUS45 KGGW 241115
RWRGGW
HOURLY REGIONAL WEATHER ROUNDUP FOR NORTHEAST MONTANA
NATIONAL WEATHER SERVICE GLASGOW MONTANA
400 AM MST FRI FEB 24 2017

NOTE: "FAIR" INDICATES FEW OR NO CLOUDS BELOW 12,000 FEET WITH NO
SIGNIFICANT WEATHER AND/OR OBSTRUCTIONS TO VISISBILITY.

NORTHEAST MONTANA


CITY           SKY/WX    TMP DP  RH WIND       PRES   REMARKS
GLASGOW        CLOUDY    24  19  81 SE10      30.08S
PLENTYWOOD       N/A     19  16  88 NW2         N/A
WOLF POINT     CLOUDY    26  18  71 E6        30.12S
JORDAN           N/A     25  22  88 E6        30.06R
WINNETT          N/A     27  26  96 E3          N/A
SIDNEY         MOCLDY    18  15  88 CALM      30.13F
GLENDIVE       CLOUDY    23  20  88 E6        30.09S
MALTA            N/A     27  25  92 E8          N/A
SCOBEY           N/A     21  11  65 CALM      30.07S

FORT PECK REPORTS


CITY           SKY/WX    TMP DP  RH WIND       PRES   REMARKS
FORT PECK        N/A     24  23  96 E12         N/A
THE PINES        N/A     25  24  96 CALM        N/A

SOUTHEAST MONTANA


CITY           SKY/WX    TMP DP  RH WIND       PRES   REMARKS
BILLINGS       LGT SNOW  25  24  96 NE7       29.94S FOG
MILES CITY     CLOUDY    28  21  75 E6        30.05R
BAKER          CLOUDY    15   9  76 E9        30.06R
LIVINGSTON     CLOUDY    18  15  88 E3        29.89R

CENTRAL MONTANA


CITY           SKY/WX    TMP DP  RH WIND       PRES   REMARKS
HAVRE          CLOUDY    18  16  92 S3        30.01F
LEWISTOWN      CLOUDY    19  16  88 SW6       29.93S
GREAT FALLS    CLOUDY    24  21  88 E3        29.95S
CUT BANK       FOG       16  16 100 SW6       29.94F VSB 1/2
HELENA         CLOUDY    27  23  85 CALM      29.93R
BUTTE          CLOUDY    17  13  84 CALM      29.86S
BOZEMAN        CLOUDY    20  18  92 W5        29.90R

WESTERN MONTANA


CITY           SKY/WX    TMP DP  RH WIND       PRES   REMARKS
MISSOULA       CLOUDY    27  18  69 NW12      30.01R
KALISPELL      NOT AVBL

NORTH DAKOTA


CITY           SKY/WX    TMP DP  RH WIND       PRES   REMARKS
WILLISTON      CLOUDY    12   9  87 CALM      30.14S
DICKINSON      CLEAR      6   3  87 CALM      30.07S
MINOT          CLEAR     20  15  81 NW7       30.12S
BISMARCK       PTCLDY    17  11  77 NW9       30.12F

SOUTHERN SASKATCHEWAN


CITY           SKY/WX    TMP DP  RH WIND       PRES   REMARKS
REGINA         CLEAR     18  16  93 W7        30.10R
MOOSE JAW      PTCLDY    19  16  86 SW9       30.11F
ESTEVAN        MOCLDY    21  16  79 W3        30.12S
SWIFT CURRENT  FLURRIES  21  19  93 S9        30.03S




USA.gov is the U.S. government's official web portal to all federal, state and local government web resources and services.